Location: Lake Arresoe
(56.0000°N, 12.5000°E)
Time: 06:51:51
(UTC+02:00)

Cosmos 1674 - Pass Details

Date: 26 July 2021
Orbit: 491 x 516 km, 82.5° (Epoch: 19 September)

Event Time Altitude Azimuth Distance (km) Brightness Sun altitude
Rises 02:28:11 0° 359° (N) 2,653 7.8 -13.1°
Reaches altitude 10° 02:31:25 10° 28° (NNE) 1,761 6.8 -12.9°
Maximum altitude 02:33:14 13° 56° (ENE) 1,581 5.9 -12.9°
Drops below altitude 10° 02:35:03 10° 85° (E) 1,756 5.7 -12.8°
Sets 02:38:15 0° 114° (ESE) 2,637 6.3 -12.6°
